Regional Weather Roundup
Issued by NWS

Home | Current Version | Previous Version | Graphics & Text | Print | Product List | Glossary On
Versions: 1 2 3 4 5 6 7 8 9 10 11 12 13 14 15 16 17 18 19 20 21 22 23 24 25 26 27 28 29 30 31 32 33 34 35 36 37 38 39 40 41 42 43 44 45 46 47 48 49
000
ASUS43 KDMX 170707
RWRIA

WEATHER ROUNDUP FOR IOWA
NATIONAL WEATHER SERVICE DES MOINES IA
100 AM CST WED DEC 17 2014

NOTE: "FAIR" INDICATES FEW OR NO CLOUDS BELOW 12,000 FEET WITH NO
SIGNIFICANT WEATHER AND/OR OBSTRUCTIONS TO VISIBILITY.

* - THESE STATIONS ARE NOT NWS STATIONS...THUS NOT UNDER NWS
QUALITY CONTROL.  THEY ALSO DO NOT REPORT WEATHER SUCH
AS PRECIPITATION OR FOG.

IAZ001>003-012>014-020>022-031>034-043>046-170800-
   NORTHWEST IOWA

CITY           SKY/WX    TMP DP  RH WIND       PRES   REMARKS
CARROLL *      CLEAR     14  10  85 NW7       30.33S WCI   4
CHEROKEE *     PTCLDY    12   9  85 NW5       30.33F WCI   4
DENISON *      CLEAR     14  10  85 NW6       30.32F WCI   5
LE MARS *      CLEAR     10   9  92 CALM      30.35F
ORANGE CITY *  CLEAR     10   9  92 NW5       30.32S WCI   2
SHELDON *      CLEAR      9   5  85 NW8       30.31F WCI  -4
SIOUX CITY     PTCLDY    14   9  80 NW7       30.37S WCI   4
SPENCER        PTCLDY    11   6  81 W7        30.31S WCI   0
STORM LAKE *   CLEAR     10   7  85 NW6       30.31S WCI   1
$$

IAZ055>058-069>071-079>083-090>094-170800-
   SOUTHWEST IOWA

CITY           SKY/WX    TMP DP  RH WIND       PRES   REMARKS
ATLANTIC *     MOCLDY    18  12  79 N7G15     30.33F WCI   8
AUDUBON *      CLEAR     14   9  79 NW5       30.32S WCI   6
CLARINDA *     CLEAR     19  16  86 NW7       30.36F WCI  10
COUNCIL BLFS * MOCLDY    18  16  93 N9        30.32F WCI   6
CRESTON *      CLOUDY    18  16  93 N8        30.31F WCI   7
HARLAN  *      CLOUDY    16  16 100 N10       30.36F WCI   3
LAMONI         CLOUDY    19  15  84 NW9       30.31S WCI   8
RED OAK *      PTCLDY    16  14  93 N6        30.34F WCI   7
SHENANDOAH *   CLEAR     19  16  86 NW5       30.36S WCI  13
$$

IAZ047>049-059>061-072>074-084-170800-
   CENTRAL IOWA

CITY           SKY/WX    TMP DP  RH WIND       PRES   REMARKS
AMES           CLOUDY    18  11  74 NW12      30.32R WCI   5
ANKENY *       FLURRIES  16  10  79 N9G16     30.33S WCI   4
CHARITON *     CLOUDY    21  16  79 NW10      30.31R WCI  10
DES MOINES     FLURRIES  17  10  74 NW9       30.33R WCI   6
GRINNELL*      FLURRIES  18  14  86 NW13G18   30.29S WCI   4
KNOXVILLE *    CLOUDY    18  12  79 NW13      30.30S WCI   4
MARSHALLTOWN   CLOUDY    18  13  80 NW9       30.28S WCI   7
PELLA *        CLOUDY    16  10  79 NW12      30.34R WCI   3
PERRY *        CLOUDY    16  12  86 NW6       30.33S WCI   7
$$

IAZ004>006-015-016-023>025-035-036-170800-
   NORTH CENTRAL IOWA

CITY           SKY/WX    TMP DP  RH WIND       PRES   REMARKS
ALGONA *       CLEAR     12  10  92 NW7       30.30F WCI   2
CLARION *      MOCLDY    14  10  85 NW9       30.30R WCI   2
ESTHERVILLE    CLEAR     11   8  88 NW8       30.28F WCI  -1
FORT DODGE *   CLEAR     12   7  79 NW5       30.32R WCI   4
MASON CITY     CLEAR     12   8  84 NW12      30.28S WCI  -2
FOREST CITY *  FLURRIES  12   9  85 NW7       30.27S WCI   2
IOWA FALLS *   CLOUDY    18  14  86 NW13      30.28S WCI   4
$$

IAZ007>011-017>019-026>030-037>042-050>054-066-170800-
   NORTHEAST IOWA

CITY           SKY/WX    TMP DP  RH WIND       PRES   REMARKS
CEDAR RAPIDS   CLOUDY    19  14  81 NW15      30.26S WCI   5
CHARLES CITY * CLOUDY    18  16  93 NW12      30.26S WCI   5
CLINTON *      CLOUDY    21  16  79 NW14      30.26R WCI   8
DECORAH *      CLOUDY    19  16  86 NW14G23   30.21R WCI   6
DUBUQUE        CLOUDY    21  16  81 NW16      30.20S WCI   7
MONTICELLO *   CLOUDY    21  16  79 NW15G21   30.24S WCI   8
OELWEIN *      CLOUDY    21  16  79 NW15      30.24F WCI   8
WATERLOO       CLOUDY    19  14  81 NW13      30.26F WCI   6
$$

IAZ064-065-067-068-078-170800-
   EAST CENTRAL IOWA

CITY           SKY/WX    TMP DP  RH WIND       PRES   REMARKS
DAVENPORT      CLOUDY    21  14  74 NW15      30.25S WCI   8
IOWA CITY      CLOUDY    19  13  77 NW15      30.30S WCI   5
MT. PLEASANT * CLOUDY    19  14  79 NW13      30.30S WCI   7
MUSCATINE *    CLOUDY    21  14  73 NW14G20   30.30S WCI   8
QUAD CITIES    CLOUDY    21  14  74 NW16      30.26S WCI   7
$$

IAZ062-063-075>077-085>089-095>099-170800-
   SOUTHEAST IOWA

CITY           SKY/WX    TMP DP  RH WIND       PRES   REMARKS
BURLINGTON     CLOUDY    22  16  78 NW9G17    30.28S WCI  12
FAIRFIELD *    CLOUDY    19  12  73 NW14G20   30.30R WCI   6
FORT MADISON * CLOUDY    23  18  80 NW14G20   30.29S WCI  11
KEOKUK *       CLOUDY    25  19  80 NW7G14    30.29S WCI  17
OSKALOOSA *    CLOUDY    18  12  79 NW15      30.31S WCI   3
CENTERVILLE *  CLOUDY    23  19  86 W12       30.31S WCI  12
OTTUMWA        CLOUDY    17  11  77 NW13      30.31R WCI   4
WASHINGTON *   CLOUDY    19  16  86 NW14      30.30R WCI   6
$$

ABBREVIATIONS USED IN REMARKS
   TC - TEMPERATURES IN CELSIUS
  WCI - WIND CHILL INDEX
   HX - HEAT INDEX
  VSB - VISIBILITY
$$



USA.gov is the U.S. government's official web portal to all federal, state and local government web resources and services.